Location: Unspecified
(0.0000°N, 0.0000°E)
Time: 11:16:36
(UTC+00:00)

Vanguard 1 Rocket - Pass Details

Date: 21 November 2019
Orbit: 650 x 4226 km, 34.3° (Epoch: 13 December)

Event Time Altitude Azimuth Distance (km) Brightness Sun altitude
Rises 11:30:59 0° 293° (WNW) 5,019 11.1 69.8°
Reaches altitude 10° 11:33:42 10° 289° (WNW) 4,377 10.9 69.9°
Maximum altitude 11:46:38 59° 212° (SSW) 3,320 12.1 70.1°
Drops below altitude 10° 12:10:04 10° 137° (SE) 7,330 12.3 69.2°
Sets 12:16:31 0° 133° (SE) 8,471 12.4 68.7°
